Time,TemperatureF,DewpointF,PressureIn,WindDirection,WindDirectionDegrees,WindSpeedMPH,WindSpeedGustMPH,Humidity,HourlyPrecipIn,Conditions,Clouds,dailyrainin,SolarRadiationWatts/m^2,SoftwareType,DateUTC
2013-03-20 00:00:00,21.3,5.1,30.07,North,-999,0.0,0.0,49,0.00,,,0.00,0.00,VWS V14.01,2013-03-20 06:00:00,
2013-03-20 00:05:00,20.7,4.1,30.07,North,-999,0.0,0.0,48,0.00,,,0.00,0.00,VWS V14.01,2013-03-20 06:05:00,
2013-03-20 00:10:00,20.5,4.8,30.07,North,-999,0.0,0.0,50,0.00,,,0.00,0.00,VWS V14.01,2013-03-20 06:10:00,
2013-03-20 00:15:00,20.7,6.7,30.06,North,-999,0.0,0.0,54,0.00,,,0.00,0.00,VWS V14.01,2013-03-20 06:15:00,
2013-03-20 00:20:00,21.2,6.8,30.06,North,-999,0.0,0.0,53,0.00,,,0.00,0.00,VWS V14.01,2013-03-20 06:20:00,
2013-03-20 00:25:00,21.5,5.3,30.06,North,-999,0.0,0.0,49,0.00,,,0.00,0.00,VWS V14.01,2013-03-20 06:25:00,
2013-03-20 00:30:00,20.7,2.7,30.06,North,-999,0.0,0.0,45,0.00,,,0.00,0.00,VWS V14.01,2013-03-20 06:30:00,
2013-03-20 00:35:00,20.4,5.2,30.06,North,-999,0.0,0.0,51,0.00,,,0.00,0.00,VWS V14.01,2013-03-20 06:35:00,
2013-03-20 00:40:00,21.0,7.0,30.05,North,-999,0.0,0.0,54,0.00,,,0.00,0.00,VWS V14.01,2013-03-20 06:40:00,
2013-03-20 00:45:00,21.5,7.0,30.05,North,-999,0.0,0.0,53,0.00,,,0.00,0.00,VWS V14.01,2013-03-20 06:45:00,
2013-03-20 00:49:00,21.8,7.3,30.05,North,-999,0.0,0.0,53,0.00,,,0.00,0.00,VWS V14.01,2013-03-20 06:49:00,
2013-03-20 00:54:00,21.9,7.0,30.05,North,-999,0.0,0.0,52,0.00,,,0.00,0.00,VWS V14.01,2013-03-20 06:54:00,
2013-03-20 00:59:00,22.2,8.1,30.04,North,-999,0.0,0.0,54,0.00,,,0.00,0.00,VWS V14.01,2013-03-20 06:59:00,
2013-03-20 01:04:00,22.3,7.8,30.03,North,-999,3.0,3.0,53,0.00,,,0.00,0.00,VWS V14.01,2013-03-20 07:04:00,
2013-03-20 01:09:00,22.7,9.0,30.03,North,-999,0.0,0.0,55,0.00,,,0.00,0.00,VWS V14.01,2013-03-20 07:09:00,
2013-03-20 01:14:00,22.6,7.6,30.03,North,-999,0.0,0.0,52,0.00,,,0.00,0.00,VWS V14.01,2013-03-20 07:14:00,
2013-03-20 01:19:00,21.6,6.7,30.03,North,-999,0.0,4.0,52,0.00,,,0.00,0.00,VWS V14.01,2013-03-20 07:19:00,
2013-03-20 01:24:00,21.0,7.4,30.03,North,-999,0.0,4.0,55,0.00,,,0.00,0.00,VWS V14.01,2013-03-20 07:24:00,
2013-03-20 01:29:00,20.9,7.3,30.03,North,-999,0.0,0.0,55,0.00,,,0.00,0.00,VWS V14.01,2013-03-20 07:29:00,
2013-03-20 01:34:00,20.6,7.0,30.02,North,-999,0.0,0.0,55,0.00,,,0.00,0.00,VWS V14.01,2013-03-20 07:34:00,
2013-03-20 01:39:00,20.3,7.5,30.02,North,-999,0.0,0.0,57,0.00,,,0.00,0.00,VWS V14.01,2013-03-20 07:39:00,
2013-03-20 01:44:00,20.4,8.7,30.02,North,-999,0.0,3.0,60,0.00,,,0.00,0.00,VWS V14.01,2013-03-20 07:44:00,
2013-03-20 01:49:00,20.9,9.2,30.02,North,-999,0.0,0.0,60,0.00,,,0.00,0.00,VWS V14.01,2013-03-20 07:49:00,
2013-03-20 01:54:00,21.5,9.4,30.02,North,-999,0.0,0.0,59,0.00,,,0.00,0.00,VWS V14.01,2013-03-20 07:54:00,
2013-03-20 01:59:00,21.9,9.4,30.02,North,-999,2.0,3.0,58,0.00,,,0.00,0.00,VWS V14.01,2013-03-20 07:59:00,
2013-03-20 02:04:00,22.0,9.5,30.02,North,-999,0.0,3.0,58,0.00,,,0.00,0.00,VWS V14.01,2013-03-20 08:04:00,
2013-03-20 02:09:00,22.1,9.6,30.02,North,-999,0.0,0.0,58,0.00,,,0.00,0.00,VWS V14.01,2013-03-20 08:09:00,
2013-03-20 02:14:00,22.1,9.6,30.01,North,-999,0.0,0.0,58,0.00,,,0.00,0.00,VWS V14.01,2013-03-20 08:14:00,
2013-03-20 02:19:00,22.1,9.6,30.02,North,-999,0.0,3.0,58,0.00,,,0.00,0.00,VWS V14.01,2013-03-20 08:19:00,
2013-03-20 02:24:00,22.1,9.6,30.01,North,-999,0.0,3.0,58,0.00,,,0.00,0.00,VWS V14.01,2013-03-20 08:24:00,
2013-03-20 02:29:00,22.3,9.8,30.01,North,-999,0.0,0.0,58,0.00,,,0.00,0.00,VWS V14.01,2013-03-20 08:29:00,
2013-03-20 02:34:00,22.4,9.9,30.01,North,-999,0.0,0.0,58,0.00,,,0.00,0.00,VWS V14.01,2013-03-20 08:34:00,
2013-03-20 02:39:00,22.5,10.0,30.00,North,-999,0.0,0.0,58,0.00,,,0.00,0.00,VWS V14.01,2013-03-20 08:39:00,
2013-03-20 02:44:00,22.6,10.4,30.00,North,-999,0.0,0.0,59,0.00,,,0.00,0.00,VWS V14.01,2013-03-20 08:44:00,
2013-03-20 02:49:00,22.7,10.5,30.00,North,-999,0.0,2.0,59,0.00,,,0.00,0.00,VWS V14.01,2013-03-20 08:49:00,
2013-03-20 02:54:00,22.9,10.7,29.99,North,-999,0.0,2.0,59,0.00,,,0.00,0.00,VWS V14.01,2013-03-20 08:54:00,
2013-03-20 02:59:00,22.7,9.4,29.99,North,-999,0.0,0.0,56,0.00,,,0.00,0.00,VWS V14.01,2013-03-20 08:59:00,
2013-03-20 03:04:00,22.3,9.0,29.99,North,-999,0.0,0.0,56,0.00,,,0.00,0.00,VWS V14.01,2013-03-20 09:04:00,
2013-03-20 03:09:00,22.1,9.2,29.98,North,-999,0.0,0.0,57,0.00,,,0.00,0.00,VWS V14.01,2013-03-20 09:09:00,
2013-03-20 03:14:00,22.0,9.5,29.98,North,-999,0.0,0.0,58,0.00,,,0.00,0.00,VWS V14.01,2013-03-20 09:14:00,
2013-03-20 03:19:00,22.0,9.9,29.98,North,-999,0.0,0.0,59,0.00,,,0.00,0.00,VWS V14.01,2013-03-20 09:19:00,
2013-03-20 03:24:00,22.1,10.0,29.98,North,-999,0.0,0.0,59,0.00,,,0.00,0.00,VWS V14.01,2013-03-20 09:24:00,
2013-03-20 03:29:00,22.2,9.7,29.97,North,-999,0.0,0.0,58,0.00,,,0.00,0.00,VWS V14.01,2013-03-20 09:29:00,
2013-03-20 03:34:00,22.4,10.3,29.97,North,-999,0.0,0.0,59,0.00,,,0.00,0.00,VWS V14.01,2013-03-20 09:34:00,
2013-03-20 03:39:00,22.5,10.4,29.97,North,-999,0.0,0.0,59,0.00,,,0.00,0.00,VWS V14.01,2013-03-20 09:39:00,
2013-03-20 03:44:00,22.8,10.6,29.97,North,-999,2.0,3.0,59,0.00,,,0.00,0.00,VWS V14.01,2013-03-20 09:44:00,
2013-03-20 03:49:00,22.9,10.7,29.97,North,-999,0.0,0.0,59,0.00,,,0.00,0.00,VWS V14.01,2013-03-20 09:49:00,
2013-03-20 03:54:00,23.1,10.9,29.96,North,-999,0.0,3.0,59,0.00,,,0.00,0.00,VWS V14.01,2013-03-20 09:54:00,
2013-03-20 03:59:00,23.2,11.0,29.96,North,-999,0.0,0.0,59,0.00,,,0.00,0.00,VWS V14.01,2013-03-20 09:59:00,
2013-03-20 04:04:00,23.3,11.1,29.96,North,-999,2.0,3.0,59,0.00,,,0.00,0.00,VWS V14.01,2013-03-20 10:04:00,
2013-03-20 04:09:00,23.3,11.1,29.96,North,-999,0.0,1.0,59,0.00,,,0.00,0.00,VWS V14.01,2013-03-20 10:09:00,
2013-03-20 04:14:00,23.3,11.1,29.96,North,-999,0.0,3.0,59,0.00,,,0.00,0.00,VWS V14.01,2013-03-20 10:14:00,
2013-03-20 04:19:00,23.3,11.1,29.95,North,-999,0.0,0.0,59,0.00,,,0.00,0.00,VWS V14.01,2013-03-20 10:19:00,
2013-03-20 04:24:00,23.4,11.2,29.95,North,-999,0.0,3.0,59,0.00,,,0.00,0.00,VWS V14.01,2013-03-20 10:24:00,
2013-03-20 04:29:00,23.4,11.6,29.95,North,-999,0.0,0.0,60,0.00,,,0.00,0.00,VWS V14.01,2013-03-20 10:29:00,
2013-03-20 04:34:00,23.5,11.7,29.95,North,-999,0.0,3.0,60,0.00,,,0.00,0.00,VWS V14.01,2013-03-20 10:34:00,
2013-03-20 04:39:00,23.5,11.7,29.95,North,-999,0.0,0.0,60,0.00,,,0.00,0.00,VWS V14.01,2013-03-20 10:39:00,
2013-03-20 04:44:00,23.5,11.7,29.94,North,-999,0.0,4.0,60,0.00,,,0.00,0.00,VWS V14.01,2013-03-20 10:44:00,
2013-03-20 04:49:00,23.4,11.2,29.94,North,-999,0.0,0.0,59,0.00,,,0.00,0.00,VWS V14.01,2013-03-20 10:49:00,
2013-03-20 04:54:00,23.3,11.5,29.94,North,-999,0.0,0.0,60,0.00,,,0.00,0.00,VWS V14.01,2013-03-20 10:54:00,
2013-03-20 04:59:00,23.2,11.8,29.93,North,-999,0.0,0.0,61,0.00,,,0.00,0.00,VWS V14.01,2013-03-20 10:59:00,
2013-03-20 05:04:00,23.3,11.9,29.93,North,-999,0.0,0.0,61,0.00,,,0.00,0.00,VWS V14.01,2013-03-20 11:04:00,
2013-03-20 05:09:00,23.5,12.0,29.93,North,-999,0.0,0.0,61,0.00,,,0.00,0.00,VWS V14.01,2013-03-20 11:09:00,
2013-03-20 05:14:00,23.7,12.2,29.93,North,-999,0.0,3.0,61,0.00,,,0.00,0.00,VWS V14.01,2013-03-20 11:14:00,
2013-03-20 05:19:00,23.9,12.4,29.93,North,-999,0.0,0.0,61,0.00,,,0.00,0.00,VWS V14.01,2013-03-20 11:19:00,
2013-03-20 05:24:00,24.0,12.5,29.92,North,-999,0.0,0.0,61,0.00,,,0.00,0.00,VWS V14.01,2013-03-20 11:24:00,
2013-03-20 05:29:00,24.1,12.6,29.93,North,-999,0.0,0.0,61,0.00,,,0.00,0.00,VWS V14.01,2013-03-20 11:29:00,
2013-03-20 05:34:00,24.1,11.9,29.93,North,-999,0.0,0.0,59,0.00,,,0.00,0.00,VWS V14.01,2013-03-20 11:34:00,
2013-03-20 05:39:00,23.8,10.8,29.93,North,-999,0.0,0.0,57,0.00,,,0.00,0.00,VWS V14.01,2013-03-20 11:39:00,
2013-03-20 05:44:00,23.2,10.6,29.92,North,-999,0.0,0.0,58,0.00,,,0.00,0.00,VWS V14.01,2013-03-20 11:44:00,
2013-03-20 05:49:00,23.1,11.3,29.92,North,-999,0.0,0.0,60,0.00,,,0.00,0.00,VWS V14.01,2013-03-20 11:49:00,
2013-03-20 05:54:00,23.1,11.7,29.91,North,-999,0.0,0.0,61,0.00,,,0.00,0.00,VWS V14.01,2013-03-20 11:54:00,
2013-03-20 05:59:00,23.3,11.9,29.91,North,-999,0.0,0.0,61,0.00,,,0.00,0.00,VWS V14.01,2013-03-20 11:59:00,
2013-03-20 06:04:00,23.4,11.9,29.91,North,-999,0.0,0.0,61,0.00,,,0.00,0.00,VWS V14.01,2013-03-20 12:04:00,
2013-03-20 06:09:00,23.4,11.9,29.91,North,-999,0.0,0.0,61,0.00,,,0.00,0.00,VWS V14.01,2013-03-20 12:09:00,
2013-03-20 06:14:00,23.3,11.5,29.91,North,-999,0.0,0.0,60,0.00,,,0.00,0.00,VWS V14.01,2013-03-20 12:14:00,
2013-03-20 06:19:00,23.1,11.7,29.90,North,-999,0.0,0.0,61,0.00,,,0.00,0.00,VWS V14.01,2013-03-20 12:19:00,
2013-03-20 06:24:00,23.1,11.7,29.90,North,-999,0.0,0.0,61,0.00,,,0.00,0.00,VWS V14.01,2013-03-20 12:24:00,
2013-03-20 06:29:00,23.1,12.0,29.89,North,-999,0.0,0.0,62,0.00,,,0.00,0.00,VWS V14.01,2013-03-20 12:29:00,
2013-03-20 06:34:00,23.1,12.0,29.89,North,-999,0.0,0.0,62,0.00,,,0.00,0.00,VWS V14.01,2013-03-20 12:34:00,
2013-03-20 06:39:00,23.2,12.5,29.89,North,-999,0.0,0.0,63,0.00,,,0.00,0.00,VWS V14.01,2013-03-20 12:39:00,
2013-03-20 06:44:00,23.2,12.5,29.88,North,-999,0.0,0.0,63,0.00,,,0.00,0.00,VWS V14.01,2013-03-20 12:44:00,
2013-03-20 06:49:00,23.2,12.1,29.88,North,-999,0.0,0.0,62,0.00,,,0.00,0.00,VWS V14.01,2013-03-20 12:49:00,
2013-03-20 06:54:00,22.8,11.8,29.88,North,-999,0.0,2.0,62,0.00,,,0.00,0.00,VWS V14.01,2013-03-20 12:54:00,
2013-03-20 06:59:00,22.8,12.5,29.88,North,-999,0.0,0.0,64,0.00,,,0.00,0.00,VWS V14.01,2013-03-20 12:59:00,
2013-03-20 07:04:00,22.9,12.6,29.88,North,-999,0.0,0.0,64,0.00,,,0.00,0.00,VWS V14.01,2013-03-20 13:04:00,
2013-03-20 07:09:00,22.9,12.2,29.88,North,-999,0.0,0.0,63,0.00,,,0.00,0.00,VWS V14.01,2013-03-20 13:09:00,
2013-03-20 07:14:00,23.0,12.6,29.88,North,-999,0.0,0.0,64,0.00,,,0.00,0.00,VWS V14.01,2013-03-20 13:14:00,
2013-03-20 07:19:00,23.1,12.8,29.88,North,-999,0.0,0.0,64,0.00,,,0.00,9.00,VWS V14.01,2013-03-20 13:19:00,
2013-03-20 07:24:00,23.0,12.6,29.88,North,-999,0.0,0.0,64,0.00,,,0.00,9.00,VWS V14.01,2013-03-20 13:24:00,
2013-03-20 07:29:00,23.0,13.0,29.87,North,-999,0.0,0.0,65,0.00,,,0.00,11.00,VWS V14.01,2013-03-20 13:29:00,
2013-03-20 07:34:00,23.2,12.8,29.87,North,-999,0.0,0.0,64,0.00,,,0.00,12.00,VWS V14.01,2013-03-20 13:34:00,
2013-03-20 07:39:00,23.1,12.8,29.87,North,-999,0.0,0.0,64,0.00,,,0.00,14.00,VWS V14.01,2013-03-20 13:39:00,
2013-03-20 07:44:00,23.1,12.8,29.87,North,-999,0.0,0.0,64,0.00,,,0.00,19.00,VWS V14.01,2013-03-20 13:44:00,
2013-03-20 07:49:00,23.1,12.8,29.87,North,-999,0.0,0.0,64,0.00,,,0.00,26.00,VWS V14.01,2013-03-20 13:49:00,
2013-03-20 07:54:00,23.3,12.9,29.86,North,-999,0.0,0.0,64,0.00,,,0.00,39.00,VWS V14.01,2013-03-20 13:54:00,
2013-03-20 07:59:00,23.5,13.5,29.86,North,-999,0.0,0.0,65,0.00,,,0.00,46.00,VWS V14.01,2013-03-20 13:59:00,
2013-03-20 08:04:00,23.8,13.8,29.85,North,-999,0.0,0.0,65,0.00,,,0.00,47.00,VWS V14.01,2013-03-20 14:04:00,
2013-03-20 08:09:00,24.0,13.6,29.85,North,-999,0.0,0.0,64,0.00,,,0.00,49.00,VWS V14.01,2013-03-20 14:09:00,
2013-03-20 08:14:00,24.2,13.8,29.85,North,-999,0.0,0.0,64,0.00,,,0.00,47.00,VWS V14.01,2013-03-20 14:14:00,
2013-03-20 08:19:00,24.3,13.9,29.85,North,-999,0.0,2.0,64,0.00,,,0.00,49.00,VWS V14.01,2013-03-20 14:19:00,
2013-03-20 08:24:00,24.4,14.0,29.84,North,-999,2.0,4.0,64,0.00,,,0.00,56.00,VWS V14.01,2013-03-20 14:24:00,
2013-03-20 08:29:00,24.6,14.2,29.85,North,-999,2.0,3.0,64,0.00,,,0.00,65.00,VWS V14.01,2013-03-20 14:29:00,
2013-03-20 08:34:00,24.6,14.2,29.84,North,-999,0.0,3.0,64,0.00,,,0.00,79.00,VWS V14.01,2013-03-20 14:34:00,
2013-03-20 08:39:00,24.8,14.4,29.84,North,-999,0.0,0.0,64,0.00,,,0.00,84.00,VWS V14.01,2013-03-20 14:39:00,
2013-03-20 08:44:00,25.0,14.2,29.84,North,-999,0.0,0.0,63,0.00,,,0.00,86.00,VWS V14.01,2013-03-20 14:44:00,
2013-03-20 08:49:00,25.1,14.3,29.84,North,-999,0.0,0.0,63,0.00,,,0.00,90.00,VWS V14.01,2013-03-20 14:49:00,
2013-03-20 08:54:00,25.2,14.4,29.84,North,-999,0.0,0.0,63,0.00,,,0.00,86.00,VWS V14.01,2013-03-20 14:54:00,
2013-03-20 08:59:00,25.2,14.4,29.83,North,-999,0.0,0.0,63,0.00,,,0.00,88.00,VWS V14.01,2013-03-20 14:59:00,
2013-03-20 09:04:00,25.4,14.6,29.83,North,-999,5.0,5.0,63,0.00,,,0.00,95.00,VWS V14.01,2013-03-20 15:04:00,
2013-03-20 09:09:00,25.6,14.8,29.83,North,-999,4.0,5.0,63,0.00,,,0.00,100.00,VWS V14.01,2013-03-20 15:09:00,
2013-03-20 09:14:00,25.8,15.0,29.83,North,-999,0.0,5.0,63,0.00,,,0.00,105.00,VWS V14.01,2013-03-20 15:14:00,
2013-03-20 09:19:00,26.1,14.9,29.83,North,-999,0.0,0.0,62,0.00,,,0.00,104.00,VWS V14.01,2013-03-20 15:19:00,
2013-03-20 09:24:00,26.3,15.1,29.83,North,-999,0.0,3.0,62,0.00,,,0.00,102.00,VWS V14.01,2013-03-20 15:24:00,
2013-03-20 09:29:00,26.5,14.9,29.83,North,-999,4.0,6.0,61,0.00,,,0.00,100.00,VWS V14.01,2013-03-20 15:29:00,
2013-03-20 09:34:00,26.7,15.1,29.82,North,-999,3.0,6.0,61,0.00,,,0.00,114.00,VWS V14.01,2013-03-20 15:34:00,
2013-03-20 09:39:00,26.9,15.3,29.82,North,-999,2.0,3.0,61,0.00,,,0.00,127.00,VWS V14.01,2013-03-20 15:39:00,
2013-03-20 09:44:00,27.1,15.4,29.82,North,-999,0.0,3.0,61,0.00,,,0.00,139.00,VWS V14.01,2013-03-20 15:44:00,
2013-03-20 09:49:00,27.3,15.3,29.82,North,-999,0.0,0.0,60,0.00,,,0.00,171.00,VWS V14.01,2013-03-20 15:49:00,
2013-03-20 09:54:00,27.5,15.4,29.81,North,-999,0.0,0.0,60,0.00,,,0.00,237.00,VWS V14.01,2013-03-20 15:54:00,
2013-03-20 09:59:00,27.8,15.7,29.81,North,-999,0.0,0.0,60,0.00,,,0.00,290.00,VWS V14.01,2013-03-20 15:59:00,
2013-03-20 10:04:00,28.3,16.2,29.80,North,-999,2.0,4.0,60,0.00,,,0.00,257.00,VWS V14.01,2013-03-20 16:04:00,
2013-03-20 10:09:00,28.6,16.1,29.80,North,-999,4.0,5.0,59,0.00,,,0.00,230.00,VWS V14.01,2013-03-20 16:09:00,
2013-03-20 10:14:00,28.8,16.7,29.80,North,-999,4.0,5.0,60,0.00,,,0.00,199.00,VWS V14.01,2013-03-20 16:14:00,
2013-03-20 10:19:00,29.0,16.5,29.80,North,-999,4.0,4.0,59,0.00,,,0.00,209.00,VWS V14.01,2013-03-20 16:19:00,
2013-03-20 10:24:00,29.3,16.8,29.79,North,-999,4.0,6.0,59,0.00,,,0.00,253.00,VWS V14.01,2013-03-20 16:24:00,
2013-03-20 10:29:00,29.7,17.1,29.80,North,-999,4.0,5.0,59,0.00,,,0.00,272.00,VWS V14.01,2013-03-20 16:29:00,
2013-03-20 10:34:00,30.2,17.2,29.79,North,-999,0.0,5.0,58,0.00,,,0.00,316.00,VWS V14.01,2013-03-20 16:34:00,
2013-03-20 10:39:00,30.8,17.4,29.79,North,-999,3.0,4.0,57,0.00,,,0.00,339.00,VWS V14.01,2013-03-20 16:39:00,
2013-03-20 10:44:00,31.3,17.4,29.79,North,-999,0.0,4.0,56,0.00,,,0.00,288.00,VWS V14.01,2013-03-20 16:44:00,
2013-03-20 10:49:00,31.8,17.9,29.79,North,-999,0.0,0.0,56,0.00,,,0.00,301.00,VWS V14.01,2013-03-20 16:49:00,
2013-03-20 10:54:00,32.0,18.1,29.79,North,-999,3.0,7.0,56,0.00,,,0.00,236.00,VWS V14.01,2013-03-20 16:54:00,
2013-03-20 10:59:00,32.2,17.9,29.78,North,-999,0.0,2.0,55,0.00,,,0.00,199.00,VWS V14.01,2013-03-20 16:59:00,
2013-03-20 11:04:00,32.5,18.1,29.78,North,-999,0.0,4.0,55,0.00,,,0.00,171.00,VWS V14.01,2013-03-20 17:04:00,
2013-03-20 11:09:00,32.6,18.2,29.78,North,-999,0.0,0.0,55,0.00,,,0.00,155.00,VWS V14.01,2013-03-20 17:09:00,
2013-03-20 11:14:00,33.0,18.2,29.78,North,-999,4.0,6.0,54,0.00,,,0.00,141.00,VWS V14.01,2013-03-20 17:14:00,
2013-03-20 11:19:00,33.2,18.4,29.78,North,-999,0.0,0.0,54,0.00,,,0.00,137.00,VWS V14.01,2013-03-20 17:19:00,
2013-03-20 11:24:00,33.6,18.3,29.78,North,-999,3.0,5.0,53,0.00,,,0.00,146.00,VWS V14.01,2013-03-20 17:24:00,
2013-03-20 11:29:00,33.7,18.4,29.78,North,-999,2.0,4.0,53,0.00,,,0.00,158.00,VWS V14.01,2013-03-20 17:29:00,
2013-03-20 11:34:00,33.9,18.6,29.77,North,-999,2.0,6.0,53,0.00,,,0.00,162.00,VWS V14.01,2013-03-20 17:34:00,
2013-03-20 11:39:00,33.9,18.6,29.77,North,-999,0.0,0.0,53,0.00,,,0.00,171.00,VWS V14.01,2013-03-20 17:39:00,
2013-03-20 11:44:00,34.1,18.3,29.77,North,-999,0.0,0.0,52,0.00,,,0.00,178.00,VWS V14.01,2013-03-20 17:44:00,
2013-03-20 11:49:00,34.1,18.3,29.77,North,-999,1.0,3.0,52,0.00,,,0.00,181.00,VWS V14.01,2013-03-20 17:49:00,
2013-03-20 11:54:00,34.3,18.5,29.76,North,-999,2.0,3.0,52,0.00,,,0.00,188.00,VWS V14.01,2013-03-20 17:54:00,
2013-03-20 11:59:00,34.5,18.7,29.76,North,-999,0.0,0.0,52,0.00,,,0.00,214.00,VWS V14.01,2013-03-20 17:59:00,
2013-03-20 12:04:00,34.8,18.5,29.76,North,-999,2.0,7.0,51,0.00,,,0.00,232.00,VWS V14.01,2013-03-20 18:04:00,
2013-03-20 12:09:00,35.0,18.7,29.76,North,-999,5.0,6.0,51,0.00,,,0.00,248.00,VWS V14.01,2013-03-20 18:09:00,
2013-03-20 12:13:00,35.1,18.8,29.76,North,-999,0.0,6.0,51,0.00,,,0.00,251.00,VWS V14.01,2013-03-20 18:13:00,
2013-03-20 12:18:00,35.3,18.5,29.76,North,-999,3.0,4.0,50,0.00,,,0.00,262.00,VWS V14.01,2013-03-20 18:18:00,
2013-03-20 12:23:00,35.6,18.3,29.76,North,-999,5.0,7.0,49,0.00,,,0.00,276.00,VWS V14.01,2013-03-20 18:23:00,
2013-03-20 12:28:00,35.9,18.6,29.76,North,-999,1.0,3.0,49,0.00,,,0.00,290.00,VWS V14.01,2013-03-20 18:28:00,
2013-03-20 12:33:00,36.4,18.6,29.75,North,-999,3.0,6.0,48,0.00,,,0.00,292.00,VWS V14.01,2013-03-20 18:33:00,
2013-03-20 12:38:00,36.7,18.4,29.75,North,-999,3.0,3.0,47,0.00,,,0.00,330.00,VWS V14.01,2013-03-20 18:38:00,
2013-03-20 12:43:00,37.1,18.2,29.75,North,-999,0.0,3.0,46,0.00,,,0.00,388.00,VWS V14.01,2013-03-20 18:43:00,
2013-03-20 12:48:00,37.5,18.6,29.74,North,-999,2.0,4.0,46,0.00,,,0.00,462.00,VWS V14.01,2013-03-20 18:48:00,
2013-03-20 12:53:00,38.3,18.3,29.74,North,-999,3.0,5.0,44,0.00,,,0.00,561.00,VWS V14.01,2013-03-20 18:53:00,
2013-03-20 12:58:00,39.3,18.1,29.73,North,-999,6.0,7.0,42,0.00,,,0.00,585.00,VWS V14.01,2013-03-20 18:58:00,
2013-03-20 13:03:00,40.4,18.6,29.73,North,-999,0.0,7.0,41,0.00,,,0.00,647.00,VWS V14.01,2013-03-20 19:03:00,
2013-03-20 13:08:00,41.8,16.2,29.72,North,-999,7.0,8.0,35,0.00,,,0.00,735.00,VWS V14.01,2013-03-20 19:08:00,
2013-03-20 13:13:00,42.8,15.7,29.72,North,-999,13.0,15.0,33,0.00,,,0.00,738.00,VWS V14.01,2013-03-20 19:13:00,
2013-03-20 13:18:00,43.6,15.7,29.72,North,-999,11.0,14.0,32,0.00,,,0.00,561.00,VWS V14.01,2013-03-20 19:18:00,
2013-03-20 13:23:00,44.0,16.0,29.72,North,-999,9.0,15.0,32,0.00,,,0.00,640.00,VWS V14.01,2013-03-20 19:23:00,
2013-03-20 13:28:00,44.3,15.6,29.71,North,-999,6.0,10.0,31,0.00,,,0.00,531.00,VWS V14.01,2013-03-20 19:28:00,
2013-03-20 13:33:00,44.6,15.9,29.71,North,-999,4.0,14.0,31,0.00,,,0.00,846.00,VWS V14.01,2013-03-20 19:33:00,
2013-03-20 13:38:00,44.9,15.4,29.71,North,-999,13.0,13.0,30,0.00,,,0.00,694.00,VWS V14.01,2013-03-20 19:38:00,
2013-03-20 13:43:00,44.9,16.1,29.71,North,-999,10.0,13.0,31,0.00,,,0.00,844.00,VWS V14.01,2013-03-20 19:43:00,
2013-03-20 13:48:00,45.7,16.1,29.70,North,-999,8.0,9.0,30,0.00,,,0.00,858.00,VWS V14.01,2013-03-20 19:48:00,
2013-03-20 13:53:00,46.0,17.1,29.70,North,-999,10.0,10.0,31,0.00,,,0.00,775.00,VWS V14.01,2013-03-20 19:53:00,
2013-03-20 13:58:00,46.8,17.0,29.69,North,-999,7.0,9.0,30,0.00,,,0.00,840.00,VWS V14.01,2013-03-20 19:58:00,
2013-03-20 14:03:00,48.2,17.5,29.69,North,-999,11.0,14.0,29,0.00,,,0.00,838.00,VWS V14.01,2013-03-20 20:03:00,
2013-03-20 14:08:00,48.0,17.3,29.69,North,-999,11.0,13.0,29,0.00,,,0.00,810.00,VWS V14.01,2013-03-20 20:08:00,
2013-03-20 14:13:00,47.9,17.2,29.68,North,-999,9.0,15.0,29,0.00,,,0.00,788.00,VWS V14.01,2013-03-20 20:13:00,
2013-03-20 14:18:00,48.1,17.4,29.67,North,-999,12.0,13.0,29,0.00,,,0.00,425.00,VWS V14.01,2013-03-20 20:18:00,
2013-03-20 14:23:00,48.1,18.1,29.67,North,-999,11.0,16.0,30,0.00,,,0.00,823.00,VWS V14.01,2013-03-20 20:23:00,
2013-03-20 14:28:00,48.7,18.7,29.67,North,-999,7.0,10.0,30,0.00,,,0.00,779.00,VWS V14.01,2013-03-20 20:28:00,
2013-03-20 14:33:00,49.1,19.0,29.67,North,-999,14.0,15.0,30,0.00,,,0.00,772.00,VWS V14.01,2013-03-20 20:33:00,
2013-03-20 14:38:00,49.2,19.1,29.67,North,-999,4.0,6.0,30,0.00,,,0.00,773.00,VWS V14.01,2013-03-20 20:38:00,
2013-03-20 14:43:00,49.2,19.1,29.67,North,-999,6.0,13.0,30,0.00,,,0.00,652.00,VWS V14.01,2013-03-20 20:43:00,
2013-03-20 14:48:00,49.4,18.5,29.66,North,-999,11.0,11.0,29,0.00,,,0.00,531.00,VWS V14.01,2013-03-20 20:48:00,
2013-03-20 14:53:00,49.2,19.1,29.66,North,-999,2.0,11.0,30,0.00,,,0.00,540.00,VWS V14.01,2013-03-20 20:53:00,
2013-03-20 14:58:00,49.6,19.5,29.66,North,-999,3.0,3.0,30,0.00,,,0.00,559.00,VWS V14.01,2013-03-20 20:58:00,
2013-03-20 15:03:00,49.9,18.9,29.66,North,-999,2.0,5.0,29,0.00,,,0.00,376.00,VWS V14.01,2013-03-20 21:03:00,
2013-03-20 15:08:00,50.3,18.5,29.66,North,-999,5.0,7.0,28,0.00,,,0.00,348.00,VWS V14.01,2013-03-20 21:08:00,
2013-03-20 15:13:00,50.3,19.3,29.66,North,-999,6.0,11.0,29,0.00,,,0.00,288.00,VWS V14.01,2013-03-20 21:13:00,
2013-03-20 15:18:00,50.3,19.3,29.66,North,-999,2.0,6.0,29,0.00,,,0.00,243.00,VWS V14.01,2013-03-20 21:18:00,
2013-03-20 15:23:00,50.7,19.6,29.65,North,-999,6.0,7.0,29,0.00,,,0.00,199.00,VWS V14.01,2013-03-20 21:23:00,
2013-03-20 15:28:00,50.7,19.6,29.65,North,-999,7.0,9.0,29,0.00,,,0.00,181.00,VWS V14.01,2013-03-20 21:28:00,
2013-03-20 15:33:00,50.6,19.5,29.65,North,-999,0.0,9.0,29,0.00,,,0.00,199.00,VWS V14.01,2013-03-20 21:33:00,
2013-03-20 15:38:00,50.6,20.3,29.64,North,-999,5.0,6.0,30,0.00,,,0.00,176.00,VWS V14.01,2013-03-20 21:38:00,
2013-03-20 15:43:00,50.6,19.5,29.64,North,-999,8.0,8.0,29,0.00,,,0.00,171.00,VWS V14.01,2013-03-20 21:43:00,
2013-03-20 15:48:00,50.4,20.1,29.64,North,-999,6.0,6.0,30,0.00,,,0.00,142.00,VWS V14.01,2013-03-20 21:48:00,
2013-03-20 15:53:00,50.5,20.2,29.64,North,-999,7.0,11.0,30,0.00,,,0.00,114.00,VWS V14.01,2013-03-20 21:53:00,
2013-03-20 15:58:00,50.4,20.1,29.64,North,-999,2.0,6.0,30,0.00,,,0.00,169.00,VWS V14.01,2013-03-20 21:58:00,
2013-03-20 16:03:00,50.5,21.0,29.64,North,-999,5.0,10.0,31,0.00,,,0.00,396.00,VWS V14.01,2013-03-20 22:03:00,
2013-03-20 16:08:00,51.0,21.5,29.64,North,-999,6.0,6.0,31,0.00,,,0.00,499.00,VWS V14.01,2013-03-20 22:08:00,
2013-03-20 16:13:00,51.6,20.4,29.63,North,-999,4.0,10.0,29,0.00,,,0.00,547.00,VWS V14.01,2013-03-20 22:13:00,
2013-03-20 16:18:00,51.9,20.7,29.63,North,-999,2.0,4.0,29,0.00,,,0.00,476.00,VWS V14.01,2013-03-20 22:18:00,
2013-03-20 16:23:00,52.3,21.8,29.63,North,-999,5.0,8.0,30,0.00,,,0.00,577.00,VWS V14.01,2013-03-20 22:23:00,
2013-03-20 16:28:00,52.4,21.1,29.62,North,-999,5.0,7.0,29,0.00,,,0.00,443.00,VWS V14.01,2013-03-20 22:28:00,
2013-03-20 16:33:00,52.7,21.4,29.62,North,-999,2.0,11.0,29,0.00,,,0.00,436.00,VWS V14.01,2013-03-20 22:33:00,
2013-03-20 16:38:00,53.0,20.8,29.62,North,-999,6.0,6.0,28,0.00,,,0.00,501.00,VWS V14.01,2013-03-20 22:38:00,
2013-03-20 16:43:00,53.4,22.8,29.62,North,-999,3.0,11.0,30,0.00,,,0.00,519.00,VWS V14.01,2013-03-20 22:43:00,
2013-03-20 16:48:00,53.8,22.3,29.62,North,-999,7.0,10.0,29,0.00,,,0.00,471.00,VWS V14.01,2013-03-20 22:48:00,
2013-03-20 16:53:00,53.8,21.5,29.62,North,-999,10.0,11.0,28,0.00,,,0.00,431.00,VWS V14.01,2013-03-20 22:53:00,
2013-03-20 16:58:00,53.5,22.0,29.62,North,-999,10.0,10.0,29,0.00,,,0.00,415.00,VWS V14.01,2013-03-20 22:58:00,
2013-03-20 17:03:00,53.3,21.9,29.62,North,-999,5.0,10.0,29,0.00,,,0.00,76.00,VWS V14.01,2013-03-20 23:03:00,
2013-03-20 17:08:00,53.2,21.8,29.62,North,-999,7.0,8.0,29,0.00,,,0.00,309.00,VWS V14.01,2013-03-20 23:08:00,
2013-03-20 17:13:00,53.0,21.6,29.61,North,-999,5.0,12.0,29,0.00,,,0.00,366.00,VWS V14.01,2013-03-20 23:13:00,
2013-03-20 17:18:00,52.9,22.3,29.61,North,-999,9.0,10.0,30,0.00,,,0.00,352.00,VWS V14.01,2013-03-20 23:18:00,
2013-03-20 17:23:00,53.0,21.6,29.61,North,-999,7.0,11.0,29,0.00,,,0.00,341.00,VWS V14.01,2013-03-20 23:23:00,
2013-03-20 17:28:00,53.2,21.8,29.60,North,-999,7.0,8.0,29,0.00,,,0.00,327.00,VWS V14.01,2013-03-20 23:28:00,
2013-03-20 17:33:00,53.0,20.8,29.60,North,-999,0.0,9.0,28,0.00,,,0.00,281.00,VWS V14.01,2013-03-20 23:33:00,
2013-03-20 17:38:00,53.2,21.0,29.60,North,-999,5.0,9.0,28,0.00,,,0.00,339.00,VWS V14.01,2013-03-20 23:38:00,
2013-03-20 17:43:00,53.2,21.0,29.60,North,-999,5.0,9.0,28,0.00,,,0.00,325.00,VWS V14.01,2013-03-20 23:43:00,
2013-03-20 17:48:00,53.1,20.9,29.60,North,-999,3.0,4.0,28,0.00,,,0.00,315.00,VWS V14.01,2013-03-20 23:48:00,
2013-03-20 17:53:00,53.2,21.0,29.60,North,-999,1.0,7.0,28,0.00,,,0.00,102.00,VWS V14.01,2013-03-20 23:53:00,
2013-03-20 17:58:00,53.1,20.9,29.60,North,-999,14.0,14.0,28,0.00,,,0.00,197.00,VWS V14.01,2013-03-20 23:58:00,
2013-03-20 18:03:00,53.0,20.8,29.60,North,-999,6.0,16.0,28,0.00,,,0.00,74.00,VWS V14.01,2013-03-21 00:03:00,
2013-03-20 18:08:00,52.9,20.7,29.60,North,-999,0.0,3.0,28,0.00,,,0.00,178.00,VWS V14.01,2013-03-21 00:08:00,
2013-03-20 18:13:00,53.0,20.8,29.60,North,-999,9.0,9.0,28,0.00,,,0.00,95.00,VWS V14.01,2013-03-21 00:13:00,
2013-03-20 18:18:00,53.0,19.9,29.60,North,-999,0.0,0.0,27,0.00,,,0.00,88.00,VWS V14.01,2013-03-21 00:18:00,
2013-03-20 18:23:00,53.0,19.9,29.61,North,-999,0.0,5.0,27,0.00,,,0.00,135.00,VWS V14.01,2013-03-21 00:23:00,
2013-03-20 18:28:00,53.2,20.1,29.60,North,-999,0.0,0.0,27,0.00,,,0.00,47.00,VWS V14.01,2013-03-21 00:28:00,
2013-03-20 18:33:00,53.4,20.3,29.60,North,-999,0.0,0.0,27,0.00,,,0.00,79.00,VWS V14.01,2013-03-21 00:33:00,
2013-03-20 18:38:00,53.7,20.5,29.59,North,-999,0.0,0.0,27,0.00,,,0.00,62.00,VWS V14.01,2013-03-21 00:38:00,
2013-03-20 18:43:00,53.4,27.1,29.59,North,-999,16.0,18.0,36,0.00,,,0.00,25.00,VWS V14.01,2013-03-21 00:43:00,
2013-03-20 18:48:00,53.0,27.4,29.59,North,-999,12.0,14.0,37,0.00,,,0.00,53.00,VWS V14.01,2013-03-21 00:48:00,
2013-03-20 18:53:00,52.9,27.4,29.59,North,-999,18.0,19.0,37,0.00,,,0.00,40.00,VWS V14.01,2013-03-21 00:53:00,
2013-03-20 18:58:00,52.8,27.3,29.59,North,-999,13.0,15.0,37,0.00,,,0.00,32.00,VWS V14.01,2013-03-21 00:58:00,
2013-03-20 19:03:00,52.7,27.8,29.59,North,-999,20.0,21.0,38,0.00,,,0.00,26.00,VWS V14.01,2013-03-21 01:03:00,
2013-03-20 19:08:00,52.3,27.5,29.59,North,-999,16.0,16.0,38,0.00,,,0.00,23.00,VWS V14.01,2013-03-21 01:08:00,
2013-03-20 19:13:00,52.0,27.8,29.59,North,-999,20.0,24.0,39,0.00,,,0.00,16.00,VWS V14.01,2013-03-21 01:13:00,
2013-03-20 19:18:00,51.6,28.1,29.59,North,-999,16.0,22.0,40,0.00,,,0.00,11.00,VWS V14.01,2013-03-21 01:18:00,
2013-03-20 19:23:00,51.4,27.9,29.59,North,-999,18.0,24.0,40,0.00,,,0.00,5.00,VWS V14.01,2013-03-21 01:23:00,
2013-03-20 19:28:00,51.0,27.5,29.59,North,-999,19.0,20.0,40,0.00,,,0.00,0.00,VWS V14.01,2013-03-21 01:28:00,
2013-03-20 19:33:00,50.9,27.5,29.59,North,-999,16.0,22.0,40,0.00,,,0.00,0.00,VWS V14.01,2013-03-21 01:33:00,
2013-03-20 19:38:00,50.4,27.6,29.59,North,-999,16.0,16.0,41,0.00,,,0.00,0.00,VWS V14.01,2013-03-21 01:38:00,
2013-03-20 19:43:00,50.4,27.6,29.58,North,-999,13.0,22.0,41,0.00,,,0.00,0.00,VWS V14.01,2013-03-21 01:43:00,
2013-03-20 19:48:00,49.9,27.7,29.58,North,-999,16.0,16.0,42,0.00,,,0.00,0.00,VWS V14.01,2013-03-21 01:48:00,
2013-03-20 19:53:00,49.5,27.4,29.58,North,-999,12.0,16.0,42,0.00,,,0.00,0.00,VWS V14.01,2013-03-21 01:53:00,
2013-03-20 19:58:00,49.4,27.3,29.58,North,-999,12.0,13.0,42,0.00,,,0.00,0.00,VWS V14.01,2013-03-21 01:58:00,
2013-03-20 20:03:00,48.8,27.3,29.58,North,-999,10.0,13.0,43,0.00,,,0.00,0.00,VWS V14.01,2013-03-21 02:03:00,
2013-03-20 20:08:00,48.8,27.3,29.58,North,-999,6.0,6.0,43,0.00,,,0.00,0.00,VWS V14.01,2013-03-21 02:08:00,
2013-03-20 20:13:00,48.3,26.9,29.58,North,-999,4.0,8.0,43,0.00,,,0.00,0.00,VWS V14.01,2013-03-21 02:13:00,
2013-03-20 20:18:00,47.8,26.4,29.58,North,-999,3.0,3.0,43,0.00,,,0.00,0.00,VWS V14.01,2013-03-21 02:18:00,
2013-03-20 20:23:00,47.4,26.6,29.58,North,-999,0.0,3.0,44,0.00,,,0.00,0.00,VWS V14.01,2013-03-21 02:23:00,
2013-03-20 20:28:00,47.4,27.1,29.58,North,-999,0.0,0.0,45,0.00,,,0.00,0.00,VWS V14.01,2013-03-21 02:28:00,
2013-03-20 20:33:00,47.5,27.2,29.58,North,-999,0.0,0.0,45,0.00,,,0.00,0.00,VWS V14.01,2013-03-21 02:33:00,
2013-03-20 20:38:00,47.6,27.3,29.58,North,-999,7.0,7.0,45,0.00,,,0.00,0.00,VWS V14.01,2013-03-21 02:38:00,
2013-03-20 20:43:00,47.4,26.6,29.58,North,-999,5.0,8.0,44,0.00,,,0.00,0.00,VWS V14.01,2013-03-21 02:43:00,
2013-03-20 20:48:00,46.9,26.1,29.58,North,-999,0.0,0.0,44,0.00,,,0.00,0.00,VWS V14.01,2013-03-21 02:48:00,
2013-03-20 20:53:00,45.6,25.0,29.58,North,-999,0.0,0.0,44,0.00,,,0.00,0.00,VWS V14.01,2013-03-21 02:53:00,
2013-03-20 20:58:00,45.3,26.8,29.58,North,-999,0.0,0.0,48,0.00,,,0.00,0.00,VWS V14.01,2013-03-21 02:58:00,
2013-03-20 21:03:00,45.4,25.9,29.58,North,-999,0.0,3.0,46,0.00,,,0.00,0.00,VWS V14.01,2013-03-21 03:03:00,
2013-03-20 21:08:00,45.0,26.0,29.58,North,-999,0.0,0.0,47,0.00,,,0.00,0.00,VWS V14.01,2013-03-21 03:08:00,
2013-03-20 21:13:00,44.5,25.5,29.58,North,-999,0.0,4.0,47,0.00,,,0.00,0.00,VWS V14.01,2013-03-21 03:13:00,
2013-03-20 21:18:00,44.1,23.6,29.58,North,-999,0.0,5.0,44,0.00,,,0.00,0.00,VWS V14.01,2013-03-21 03:18:00,
2013-03-20 21:23:00,44.1,21.3,29.58,North,-999,0.0,0.0,40,0.00,,,0.00,0.00,VWS V14.01,2013-03-21 03:23:00,
2013-03-20 21:28:00,44.1,20.7,29.58,North,-999,0.0,6.0,39,0.00,,,0.00,0.00,VWS V14.01,2013-03-21 03:28:00,
2013-03-20 21:33:00,43.6,19.7,29.57,North,-999,0.0,0.0,38,0.00,,,0.00,0.00,VWS V14.01,2013-03-21 03:33:00,
2013-03-20 21:38:00,43.2,21.1,29.57,North,-999,3.0,5.0,41,0.00,,,0.00,0.00,VWS V14.01,2013-03-21 03:38:00,
2013-03-20 21:43:00,43.1,21.6,29.57,North,-999,0.0,4.0,42,0.00,,,0.00,0.00,VWS V14.01,2013-03-21 03:43:00,
2013-03-20 21:48:00,43.0,22.6,29.57,North,-999,0.0,4.0,44,0.00,,,0.00,0.00,VWS V14.01,2013-03-21 03:48:00,
2013-03-20 21:53:00,42.2,21.3,29.56,North,-999,1.0,4.0,43,0.00,,,0.00,0.00,VWS V14.01,2013-03-21 03:53:00,
2013-03-20 21:58:00,41.8,19.8,29.56,North,-999,0.0,4.0,41,0.00,,,0.00,0.00,VWS V14.01,2013-03-21 03:58:00,
2013-03-20 22:00:00,41.5,20.7,29.57,North,-999,0.0,0.0,43,0.00,,,0.00,0.00,VWS V14.01,2013-03-21 04:00:00,
2013-03-20 22:05:00,41.0,21.3,29.57,North,-999,0.0,0.0,45,0.00,,,0.00,0.00,VWS V14.01,2013-03-21 04:05:00,
2013-03-20 22:10:00,40.9,21.7,29.57,North,-999,0.0,0.0,46,0.00,,,0.00,0.00,VWS V14.01,2013-03-21 04:10:00,
2013-03-20 22:15:00,40.9,21.7,29.57,North,-999,0.0,0.0,46,0.00,,,0.00,0.00,VWS V14.01,2013-03-21 04:15:00,
2013-03-20 22:20:00,39.7,20.1,29.57,North,-999,4.0,5.0,45,0.00,,,0.00,0.00,VWS V14.01,2013-03-21 04:20:00,
2013-03-20 22:25:00,39.3,21.8,29.57,North,-999,5.0,6.0,49,0.00,,,0.00,0.00,VWS V14.01,2013-03-21 04:25:00,
2013-03-20 22:30:00,39.2,23.5,29.57,North,-999,0.0,0.0,53,0.00,,,0.00,0.00,VWS V14.01,2013-03-21 04:30:00,
2013-03-20 22:35:00,39.7,23.5,29.56,North,-999,0.0,9.0,52,0.00,,,0.00,0.00,VWS V14.01,2013-03-21 04:35:00,
2013-03-20 22:40:00,40.5,24.3,29.56,North,-999,4.0,5.0,52,0.00,,,0.00,0.00,VWS V14.01,2013-03-21 04:40:00,
2013-03-20 22:45:00,41.2,24.9,29.56,North,-999,0.0,6.0,52,0.00,,,0.00,0.00,VWS V14.01,2013-03-21 04:45:00,
2013-03-20 22:50:00,42.3,24.0,29.56,North,-999,0.0,5.0,48,0.00,,,0.00,0.00,VWS V14.01,2013-03-21 04:50:00,
2013-03-20 22:55:00,42.0,23.2,29.56,North,-999,5.0,7.0,47,0.00,,,0.00,0.00,VWS V14.01,2013-03-21 04:55:00,
2013-03-20 23:00:00,41.7,24.5,29.55,North,-999,6.0,9.0,50,0.00,,,0.00,0.00,VWS V14.01,2013-03-21 05:00:00,
2013-03-20 23:05:00,41.8,24.1,29.55,North,-999,7.0,9.0,49,0.00,,,0.00,0.00,VWS V14.01,2013-03-21 05:05:00,
2013-03-20 23:10:00,42.3,24.0,29.55,North,-999,11.0,12.0,48,0.00,,,0.00,0.00,VWS V14.01,2013-03-21 05:10:00,
2013-03-20 23:15:00,44.0,26.1,29.54,North,-999,15.0,15.0,49,0.00,,,0.00,0.00,VWS V14.01,2013-03-21 05:15:00,
2013-03-20 23:20:00,45.7,26.1,29.54,North,-999,13.0,15.0,46,0.00,,,0.00,0.00,VWS V14.01,2013-03-21 05:20:00,
2013-03-20 23:25:00,47.4,26.6,29.54,North,-999,10.0,19.0,44,0.00,,,0.00,0.00,VWS V14.01,2013-03-21 05:25:00,
2013-03-20 23:30:00,47.0,26.2,29.54,North,-999,3.0,7.0,44,0.00,,,0.00,0.00,VWS V14.01,2013-03-21 05:30:00,
2013-03-20 23:35:00,45.6,23.3,29.54,North,-999,6.0,10.0,41,0.00,,,0.00,0.00,VWS V14.01,2013-03-21 05:35:00,
2013-03-20 23:40:00,41.3,21.0,29.54,North,-999,4.0,7.0,44,0.00,,,0.00,0.00,VWS V14.01,2013-03-21 05:40:00,
2013-03-20 23:45:00,39.8,21.2,29.54,North,-999,1.0,7.0,47,0.00,,,0.00,0.00,VWS V14.01,2013-03-21 05:45:00,
2013-03-20 23:50:00,38.9,20.9,29.54,North,-999,2.0,3.0,48,0.00,,,0.00,0.00,VWS V14.01,2013-03-21 05:50:00,
2013-03-20 23:55:00,37.9,20.0,29.53,North,-999,4.0,6.0,48,0.00,,,0.00,0.00,VWS V14.01,2013-03-21 05:55:00,